Location: Cella
(44.7333°N, 10.5667°E)
Time: 02:05:44
(UTC+00:00)

Cosmos 1470 Rocket - Pass Details

Date: 03 March 2021
Orbit: 603 x 634 km, 82.5° (Epoch: 20 April)

Event Time Altitude Azimuth Distance (km) Brightness Sun altitude
Rises 18:34:35 0° 199° (SSW) 2,916 7.2 -16.1°
Reaches altitude 10° 18:36:52 10° 204° (SSW) 2,012 6.4 -16.5°
Maximum altitude 18:41:14 53° 282° (WNW) 775 4.4 -17.3°
Drops below altitude 10° 18:45:37 10° 360° (N) 2,015 6.3 -18.0°
Sets 18:47:54 0° 5° (N) 2,923 7.1 -18.4°
